Regional Weather Roundup
Issued by NWS

Home | Current Version | Previous Version | Text Only | Print | Product List | Glossary Off
Versions: 1 2 3 4 5 6 7 8 9 10 11 12 13 14 15 16 17 18 19 20 21 22 23 24 25 26 27 28 29 30 31 32 33 34 35 36 37 38 39 40 41 42 43 44 45 46 47 48 49 50

000
ASUS43 KTOP 260708
RWRKS

WEATHER ROUNDUP FOR KANSAS
NATIONAL WEATHER SERVICE GOODLAND KS
100 AM CST WED NOV 26 2014

NOTE:  "FAIR" INDICATES FEW OR NO CLOUDS BELOW 12,000 FEET WITH NO
SIGNIFICANT WEATHER AND/OR OBSTRUCTIONS TO VISIBILITY.

KSZ001>006-013>018-027>032-041>047-260800-
NORTHWEST KANSAS

CITY           SKY/WX    TMP DP  RH WIND       PRES   REMARKS
GOODLAND       CLOUDY    34  32  92 NW16      30.07R WCI  24
HAYS           CLOUDY    46  25  42 NW15      29.98R
HILL CITY      CLOUDY    46  30  53 NW16G22   30.00R
RUSSELL        CLOUDY    43  22  43 NW12      29.95R
$$

KSZ061>065-074>080-084>089-260800-
SOUTHWEST KANSAS

CITY           SKY/WX    TMP DP  RH WIND       PRES   REMARKS
DODGE CITY     CLOUDY    43  26  51 N21       29.98R
ELKHART          N/A     39  16  39 NW13        N/A  WCI  31
GARDEN CITY    CLOUDY    39  33  79 N23G36    30.02R WCI  28
GREAT BEND     CLOUDY    43  28  56 W10       29.98R
LIBERAL        PTCLDY    34  16  47 N13       30.00R WCI  25
PRATT          CLOUDY    36  27  69 W6        29.96R
$$

KSZ066>073-081>083-090>101-260800-
SOUTHEAST KANSAS

CITY           SKY/WX    TMP DP  RH WIND       PRES   REMARKS
CHANUTE        CLOUDY    39  26  59 S10       29.98F WCI  32
COFFEYVILLE    CLOUDY    39  26  59 S8        30.00F
HUTCHINSON     CLOUDY    41  28  60 SW6       29.94S
MEDICINE LODGE   N/A     37  27  67 SE3       29.93S
NEWTON         CLOUDY    39  25  56 SW10      29.94F WCI  32
PARSONS        CLOUDY    41  25  53 S6        30.00F
WICHITA INTL   CLOUDY    42  28  57 S9        29.94S
WICHITA JABRA  CLOUDY    41  28  60 S14       29.93F
WICHITA MCCONL CLOUDY    40  28  63 S10       29.94F WCI  33
WINFIELD       CLOUDY    40  27  59 S9        29.95F
$$

KSZ007>012-019>026-033>040-048>060-102>105-260800-
NORTHEAST KANSAS

CITY           SKY/WX    TMP DP  RH WIND       PRES   REMARKS
CONCORDIA      CLOUDY    43  29  57 NW9       29.93R
EMPORIA        CLOUDY    38  23  55 S21       29.92F WCI  28
LAWRENCE       CLOUDY    37  23  56 SE8       29.94F
MANHATTAN      CLOUDY    44  27  51 SW15      29.89F
MARYSVILLE     MIX PCPN  41  30  65 W13       29.90R
OLATHE IND     CLOUDY    37  22  54 S14       29.95F WCI  28
OLATHE EXE     CLOUDY    37  22  54 S12       29.94F WCI  29
SALINA         CLOUDY    45  28  51 SW15      29.93S
TOPEKA BILLARD CLOUDY    44  23  43 S16G30    29.91F
TOPEKA FORBES  CLOUDY    42  23  46 S12       29.91F
$$



USA.gov is the U.S. government's official web portal to all federal, state and local government web resources and services.